Regional Weather Roundup
Issued by NWS

Current Version | Previous Version | Text Only | Print | Product List | Glossary Off
Versions: 1 2 3 4 5 6 7 8 9 10 11 12 13 14 15 16 17 18 19 20 21 22 23 24 25 26 27 28 29 30 31 32 33 34 35 36 37 38 39 40 41 42 43 44 45 46 47 48 49 50

000
ASUS44 KBMX 300810
RWRAL

ALABAMA REGIONAL WEATHER ROUNDUP
NATIONAL WEATHER SERVICE BIRMINGHAM AL
300 AM CDT TUE MAY 30 2017

NOTE: "FAIR" INDICATES FEW OR NO CLOUDS BELOW 12,000 FEET
WITH NO SIGNIFICANT WEATHER AND/OR OBSTRUCTIONS TO VISIBILITY.

THE REMARK "TC" DENOTES TEMPERATURE IN DEGREES CELSIUS.

ALZ001>011-014-016>018-020-300900-
NORTH ALABAMA

CITY           SKY/WX    TMP DP  RH WIND       PRES   REMARKS
MUSCLE SHOALS  MOCLDY    66  64  93 CALM      30.07S
HUNTSVILLE     CLOUDY    68  68 100 CALM      30.06S
DECATUR        CLOUDY    66  66 100 CALM      30.06F
HALEYVILLE     FAIR      65  65 100 CALM      30.09S
GADSDEN        FOG       67  67 100 CALM      30.07F VSB 1/2
$$

ALZ012-013-022-023-030>036-040>044-300900-
WEST CENTRAL ALABAMA

CITY           SKY/WX    TMP DP  RH WIND       PRES   REMARKS
TUSCALOOSA     CLOUDY    70  69  97 CALM      30.07R
$$

ALZ015-024>027-033>036-040>044-300900-
CENTRAL ALABAMA

CITY           SKY/WX    TMP DP  RH WIND       PRES   REMARKS
BIRMINGHAM     CLOUDY    71  69  93 CALM      30.10R
MONTGOMERY     CLOUDY    74  68  81 W7        30.08S
SHELBY CO ARPT CLOUDY    71  71 100 CALM      30.08S
MAXWELL AFB    CLOUDY    73  71  93 CALM      30.08R
GREENVILLE     LGT RAIN  74  66  76 W6        30.08F
$$

ALZ019-021-028-029-037-038-045>048-300900-
EAST CENTRAL ALABAMA

CITY           SKY/WX    TMP DP  RH WIND       PRES   REMARKS
ANNISTON       CLOUDY    68  66  93 CALM      30.08S FOG
ALEXANDER CITY CLOUDY    68  68  99 CALM      30.09S
AUBURN         CLOUDY    71  70  96 S3        30.11R
$$

ALZ051>064-300900-
SOUTHWEST ALABAMA

CITY           SKY/WX    TMP DP  RH WIND       PRES   REMARKS
MOBILE         CLOUDY    72  69  90 SE5       30.08F
BROOKLEY FIELD CLOUDY    75  71  87 NE3       30.09S
EVERGREEN      LGT RAIN  70  68  93 CALM      30.08F
$$

ALZ049-050-065>069-300900-
SOUTHEAST ALABAMA

CITY           SKY/WX    TMP DP  RH WIND       PRES   REMARKS
DOTHAN         CLOUDY    75  75 100 W8        30.12S
OZARK          CLOUDY    74  73  96 SW3       30.09S
TROY           CLOUDY    72  71  97 CALM      30.10R
EUFAULA        MOCLDY    73  70  90 CALM      30.07S
$$



USA.gov is the U.S. government's official web portal to all federal, state and local government web resources and services.